星链-3902 (STARLINK-3902 )

导读 | 星芒AI

STARLINK-3902 是 SpaceX 星链计划中的一颗低轨通信卫星,属于第 15 批星链卫星(Group 15-1)。该卫星于 2023 年 9 月 21 日由猎鹰 9 号火箭从美国佛罗里达州肯尼迪航天中心发射升空。作为星链星座的一部分,STARLINK-3902 旨在提供全球范围内的高速互联网接入服务,主要面向偏远和网络覆盖不足的地区。该卫星运行在约 550 公里的近地轨道,采用先进的星间激光通信技术,以提升数据传输效率和网络稳定性。

基本信息
目录编号:
52487
目录名称:
STARLINK-3902
国际标识:
2022-049AN
轨道中心:
EARTH
卫星名称:
星链-3902
卫星全名:
星链-3902 (STARLINK-3902 )
卫星状态:
在轨 (已飞行1325 天)
发射日期:
2022-05-06 UTC
国别 :
美国 (US)
星等 :
--
轨道信息
数据来源 国际轨道数据
星历时间: 2025-12-20T18:21:45+0800
17小时前
查看轨道信息
半长轴: 6917.883km
偏心率: 0.0001351
轨道倾角: 53.218°
近地点辐角 91.049°
升交点赤经 45.029°
平近点角 269.066°
近地点: 538.811km
远地点: 540.681km
周期: 95.438分钟
每日圈数: 15.088392
详细信息
固有亮度:
5
最大亮度:
2.5
卫星平台:
Starlink v1.5
覆盖范围:
全球
运营商:
太空探索技术公司
运营商所在国:
美国
制造商(研发单位):
太空探索技术公司
制造商所在国:
美国
使用方式:
暂无
卫星简介
星链(Starlink)计划是由太空探索技术公司(SpaceX)提出的一个巨型低轨卫星互联网星座项目,计划在2019年至2024年间在太空搭建由约1.2万颗卫星组成的“星链”网络,其中1584颗将部署在地球上空550千米处的近地轨道,并从2020年开始工作。该卫星仍在工作。
2D轨道图
3D轨道图
轨道高度分析图
轨道倾角分析图
轨道综合分析图
查看轨道综合分析图